Falls City, NE

10:38 AM CDT on July 26, 2017 (GMT -0500)
Brenner

Weather History for KFNB - January, 2014

Change the Weather History Date:

Tuesday, January 14, 2014

  Actual Average Record
Temperature  
Mean Temperature 34 °F -  
Max Temperature 44 °F 35 °F 65 °F (1952)
Min Temperature 23 °F 14 °F -10 °F (1979)
Degree Days  
Heating Degree Days 32    
Moisture  
Dew Point 20 °F    
Average Humidity 55    
Maximum Humidity 70    
Minimum Humidity 31    
Precipitation  
Precipitation 0.00 in - - ()
Sea Level Pressure  
Sea Level Pressure 30.04 in    
Wind  
Wind Speed 15 mph (NW)    
Max Wind Speed 25 mph    
Max Gust Speed 40 mph    
Visibility 10 miles    
Events      
Averages and records for this station are not official NWS values.
T = Trace of Precipitation, MM = Missing Value Source: NWS Daily Summary

Daily Weather History Graph

Daily Weather History Graph

Search for Another Location

Airport or City:

Trip Planner

Search our weather history database for the weather conditions in past years. The results will help you decide how hot, cold, wet, or windy it might be!

Date:

Astronomy

Jan. 14, 2014 Rise Set
Actual Time 7:42 AM CST 5:20 PM CST
Civil Twilight 7:13 AM CST 5:50 PM CST
Nautical Twilight 6:39 AM CST 6:23 PM CST
Astronomical Twilight 6:07 AM CST 6:56 PM CST
Moon 4:26 PM CST (1/14) 6:18 AM CST (1/14)
Length of Visible Light 10h 37m
Length of Day
9h 37m
Waxing Gibbous, 98% of the Moon is Illuminated
Jan 14
Waxing Gibbous
Jan 15
Full
Jan 23
Last Quarter
Jan 30
New
Feb 6
First Quarter

Hourly Weather History & Observations

Time (CST) Temp. Windchill Dew Point Humidity Pressure Visibility Wind Dir Wind Speed Gust Speed Precip Events Conditions
12:53 AM 35.1 °F 31.0 °F 26.1 °F 70% 29.74 in 10.0 mi West 4.6 mph - N/A   Scattered Clouds
1:53 AM 39.9 °F 32.1 °F 28.0 °F 63% 29.73 in 10.0 mi West 13.8 mph - N/A   Overcast
2:53 AM 42.1 °F 33.9 °F 30.0 °F 62% 29.73 in 10.0 mi West 17.3 mph - N/A   Overcast
3:53 AM 42.1 °F 33.6 °F 30.9 °F 65% 29.75 in 10.0 mi West 18.4 mph - N/A   Mostly Cloudy
4:53 AM 44.1 °F 36.2 °F 32.0 °F 63% 29.79 in 10.0 mi NW 18.4 mph 26.5 mph N/A   Mostly Cloudy
5:53 AM 43.0 °F 33.3 °F 32.0 °F 65% 29.85 in 10.0 mi NNW 25.3 mph 38.0 mph N/A   Clear
6:53 AM 39.0 °F 28.5 °F 28.0 °F 65% 29.91 in 10.0 mi NNW 23.0 mph 40.3 mph N/A   Clear
7:53 AM 37.9 °F 27.3 °F 28.0 °F 68% 29.94 in 10.0 mi NW 21.9 mph 28.8 mph N/A   Clear
8:53 AM 37.0 °F 27.4 °F 25.0 °F 62% 30.01 in 10.0 mi NW 17.3 mph 27.6 mph N/A   Clear
9:53 AM 37.0 °F 25.4 °F 21.9 °F 54% 30.05 in 10.0 mi NW 25.3 mph 40.3 mph N/A   Clear
10:53 AM 37.9 °F 27.1 °F 21.0 °F 51% 30.08 in 10.0 mi NW 23.0 mph 33.4 mph N/A   Clear
11:53 AM 39.0 °F 28.0 °F 16.0 °F 39% 30.09 in 10.0 mi NW 25.3 mph 36.8 mph N/A   Clear
12:53 PM 39.9 °F 30.2 °F 17.1 °F 40% 30.08 in 10.0 mi NNW 20.7 mph 34.5 mph N/A   Clear
1:53 PM 41.0 °F 31.9 °F 16.0 °F 36% 30.09 in 10.0 mi NW 19.6 mph 28.8 mph N/A   Clear
2:53 PM 39.9 °F 29.7 °F 10.9 °F 31% 30.11 in 10.0 mi NNW 23.0 mph 35.7 mph N/A   Clear
3:53 PM 39.9 °F 32.1 °F 12.9 °F 33% 30.13 in 10.0 mi NNW 13.8 mph 27.6 mph N/A   Clear
4:53 PM 36.0 °F 25.3 °F 12.9 °F 39% 30.17 in 10.0 mi NNW 19.6 mph 29.9 mph N/A   Clear
5:53 PM 30.9 °F 21.7 °F 12.0 °F 46% 30.22 in 10.0 mi NNW 11.5 mph - N/A   Clear
6:53 PM 28.0 °F 20.8 °F 14.0 °F 56% 30.23 in 10.0 mi North 6.9 mph - N/A   Clear
7:53 PM 25.0 °F 18.1 °F 14.0 °F 63% 30.24 in 10.0 mi NNW 5.8 mph - N/A   Partly Cloudy
8:53 PM 23.0 °F 13.9 °F 14.0 °F 68% 30.25 in 10.0 mi WNW 8.1 mph - N/A   Scattered Clouds
9:53 PM 24.1 °F 14.4 °F 12.0 °F 60% 30.25 in 10.0 mi NW 9.2 mph - N/A   Clear
10:53 PM 23.0 °F 13.1 °F 12.0 °F 63% 30.26 in 10.0 mi NW 9.2 mph - N/A   Clear
11:53 PM 23.0 °F 11.7 °F 12.0 °F 63% 30.26 in 10.0 mi NW 11.5 mph - N/A   Clear